RH
17 14 14 16 18 21 37 61 65 74 89 92 96 96 83 88 91 85 78 79 79 90 100 100 74 52 28 26 24 21 19 19 18 17 16 16 14 14 14 15 15 14 16 15 16 15 13 11 12
18 14 15 17 19 21 36 59 72 76 85 76 76 89 85 82 71 82 97 96 96 73 72 36 26 26 26 25 20 19 19 18 18 18 17 16 16 16 16 16 16 16 16 15 15 15 15 13 11
19 15 14 17 18 18 20 41 66 67 72 68 62 59 56 57 42 22 25 26 23 24 24 26 28 27 26 23 22 22 22 20 21 20 19 19 19 18 17 16 17 17 17 15 15 14 15 14 12
20 17 15 17 19 19 17 29 37 49 44 38 35 26 24 22 21 22 23 23 24 25 26 28 28 27 26 24 24 24 25 27 25 24 23 23 23 22 20 20 19 18 18 17 15 14 15 15 13
22 19 16 19 19 20 18 18 26 27 19 19 20 21 22 23 24 24 24 25 27 28 28 28 27 27 28 28 28 28 28 29 30 29 29 28 28 26 24 24 23 22 19 18 15 13 14 14 13
26 20 18 19 20 20 20 18 16 17 18 20 21 21 22 24 25 25 26 27 28 29 30 30 30 29 30 31 30 30 29 30 30 33 33 33 33 33 30 28 28 29 25 20 18 13 13 12 13
28 26 20 18 21 21 22 21 18 17 19 20 21 22 25 25 25 26 28 30 30 31 32 33 34 34 32 31 29 28 29 29 30 32 33 35 35 36 36 34 32 32 31 27 21 16 14 12 12
27 30 22 20 17 22 23 22 21 18 19 21 23 24 25 24 26 28 29 32 33 34 35 36 37 36 35 34 31 29 28 27 28 29 32 34 34 37 38 38 39 37 35 32 29 22 18 14 12
35 28 30 21 20 20 24 23 22 21 23 23 23 26 25 27 29 31 35 35 35 35 36 37 35 34 34 32 31 28 28 30 30 29 30 32 35 35 36 38 41 41 41 39 38 33 28 19 15
28 32 29 25 22 21 22 26 23 22 22 23 23 25 29 29 31 34 39 39 37 36 37 35 33 32 31 32 32 31 30 31 32 31 29 30 32 36 33 31 35 40 41 42 40 36 34 27 21
25 26 31 30 24 23 22 22 26 26 24 24 25 25 26 30 32 36 40 43 42 40 38 35 33 33 33 32 31 31 32 31 31 33 31 30 28 30 32 26 24 29 38 41 41 41 41 38 26
14 16 25 36 28 24 23 24 23 28 29 27 26 27 29 30 32 33 35 37 37 36 34 33 34 33 32 30 31 33 34 32 32 34 34 30 27 22 24 25 23 22 25 35 38 41 40 40 37
13 13 16 31 35 29 25 25 24 25 30 33 31 30 31 34 37 38 37 36 36 35 34 33 32 31 29 24 21 22 29 34 33 33 35 33 30 22 18 18 19 19 19 23 30 34 38 41 39
12 14 17 20 35 33 29 27 27 28 28 32 39 38 37 38 39 39 39 37 35 35 36 35 28 21 19 18 19 26 28 27 28 29 32 34 32 27 19 18 17 18 19 19 20 26 33 34 43
13 15 24 22 28 33 32 31 29 29 28 30 36 41 45 45 43 42 40 39 34 28 23 21 19 19 19 22 24 28 27 26 25 28 31 32 34 31 23 17 17 17 18 18 18 18 19 26 35
17 17 25 32 30 32 34 33 31 31 29 29 28 29 29 30 29 27 25 25 25 24 23 22 21 22 24 27 30 27 21 19 16 16 17 18 23 27 26 19 16 17 17 18 18 19 18 20 24
22 22 25 37 38 34 34 34 33 32 31 30 29 29 29 28 28 29 28 27 26 26 26 27 28 29 30 32 29 26 20 18 16 15 15 16 16 16 20 22 18 17 18 18 18 18 19 18 19
23 33 29 39 43 38 36 36 34 33 32 32 32 32 32 31 30 30 29 30 32 34 36 38 38 39 37 33 29 23 20 18 17 16 16 15 16 16 16 17 17 17 18 18 18 19 19 19 19
25 28 39 44 47 45 39 36 37 36 36 35 34 34 34 34 33 36 40 41 44 45 43 43 37 35 31 27 23 20 17 17 17 16 16 15 16 18 16 17 17 18 18 18 20 20 19 19 19
32 26 30 45 45 49 48 45 41 38 38 37 36 36 38 41 47 51 50 48 45 43 38 35 31 28 25 22 20 18 18 18 18 17 17 16 16 19 21 18 18 19 20 21 21 21 20 20 20
37 34 28 30 46 50 47 50 49 49 48 48 49 50 52 56 57 53 47 43 40 38 35 32 30 27 26 25 23 22 20 20 20 21 20 20 21 22 27 25 20 19 19 20 20 21 22 25 26
43 41 36 31 32 49 49 60 63 59 62 62 65 62 57 50 45 43 42 41 40 38 36 34 32 34 36 36 32 29 27 25 23 23 24 29 32 32 36 33 29 28 27 29 32 32 32 30 29
46 49 48 39 34 32 51 38 59 58 50 47 47 47 46 45 43 42 43 42 41 40 39 40 41 41 40 38 36 34 32 30 31 32 39 46 46 46 43 41 38 38 38 38 41 43 43 42 39
53 51 50 49 47 44 44 37 44 58 53 48 45 44 42 39 38 38 38 38 40 43 43 44 43 42 43 41 39 37 37 38 48 44 40 60 63 53 50 49 48 45 45 46 45 42 42 44 44
63 65 65 65 70 73 74 59 56 54 51 49 47 44 42 40 39 42 46 48 46 45 44 41 41 42 43 43 41 39 43 46 53 62 67 58 61 76 73 60 56 55 52 48 46 43 43 44 44
92 79 70 54 59 60 74 89 100 99 84 76 72 68 62 58 56 55 53 51 51 53 52 50 48 43 43 44 46 52 53 62 64 70 73 76 79 74 67 67 70 67 61 58 61 66 64 56 50
88 82 75 60 52 53 67 79 98 100 98 87 81 76 70 64 61 62 64 63 60 58 54 52 53 59 64 65 66 69 69 67 65 63 60 60 62 65 68 70 70 68 67 66 66 65 64 62 58
67 68 70 69 54 51 54 56 65 71 98 100 100 98 85 80 75 75 73 76 86 82 75 71 65 62 67 75 83 83 74 69 69 71 70 69 68 63 61 58 56 56 58 62 64 63 61 56 51
93 87 86 83 74 68 59 57 63 51 56 93 100 99 98 95 94 96 99 100 100 94 87 82 82 79 76 71 70 68 65 59 56 57 52 50 48 49 52 53 53 50 48 52 54 54 52 51 50
93 84 78 68 69 64 61 53 59 46 44 49 54 74 100 100 100 100 100 100 100 100 100 96 82 81 77 79 77 72 65 65 61 60 55 52 48 45 41 42 42 42 41 42 42 42 42 42 42
Wind_Speed
31 30 29 21 18 17 12 11 2 3 8 12 11 10 8 6 6 8 9 10 11 12 14 16 17 18 17 17 17 15 15 17 18 16 17 17 17 15 12 13 11 17 29 37 37 37 42 34 34
29 29 26 19 16 16 13 12 8 7 9 10 10 7 8 8 8 10 11 12 13 14 14 14 14 15 15 14 14 13 14 16 16 17 17 17 17 16 14 11 7 12 20 35 39 31 34 36 35
28 28 25 18 17 16 13 12 14 13 13 13 12 11 12 11 10 9 9 9 9 9 10 11 12 13 13 13 12 13 13 15 17 17 18 18 17 16 16 12 11 6 12 30 41 33 32 33 35
26 26 24 19 17 17 14 11 13 14 14 12 12 10 10 9 9 8 8 7 8 8 9 9 10 11 12 13 13 14 14 15 17 17 17 18 19 18 19 17 15 13 10 18 35 34 27 30 33
24 25 24 20 19 16 16 14 13 13 12 9 9 7 8 8 8 8 7 7 6 8 9 10 11 13 14 14 15 16 16 16 18 18 18 19 20 19 21 21 20 19 15 9 28 34 32 28 29
25 25 23 21 21 19 17 17 15 15 12 10 9 8 9 10 9 9 8 8 8 10 12 13 14 15 16 17 18 18 18 19 20 20 20 20 21 21 22 23 25 24 21 16 9 31 34 29 28
26 25 23 21 22 22 19 17 16 15 13 13 12 12 13 13 12 10 9 9 10 11 13 14 15 16 17 18 19 20 20 21 22 23 24 24 23 23 23 23 26 26 24 22 16 11 20 43 26
28 27 24 24 21 20 21 20 17 18 18 15 15 17 17 16 14 12 13 13 13 13 14 15 16 17 18 21 22 23 23 23 24 25 26 27 27 26 24 25 26 27 27 27 24 20 15 26 42
30 29 27 27 24 20 20 21 22 20 20 21 19 20 19 18 18 17 17 17 16 17 18 20 22 24 24 25 26 27 28 27 26 26 27 28 29 29 28 26 27 28 27 27 26 27 22 17 22
32 31 29 29 27 22 21 21 23 23 23 23 22 21 22 22 22 21 21 22 22 22 24 27 28 30 30 31 31 30 29 30 30 28 28 29 30 31 31 31 29 29 30 29 27 28 27 24 23
33 33 33 30 30 27 24 23 23 25 26 25 25 26 25 24 25 26 26 27 29 30 32 33 33 34 34 34 34 34 33 32 32 32 31 31 32 34 34 32 31 31 31 31 30 30 29 29 29
32 33 34 34 33 32 28 26 25 26 28 28 28 29 28 29 29 31 32 34 36 37 38 39 38 39 39 39 39 37 36 35 35 35 34 33 33 34 35 34 32 32 32 33 32 32 31 31 32
35 33 34 36 34 35 33 29 27 28 29 30 30 31 31 32 33 35 37 39 40 41 41 42 43 43 42 41 39 39 39 39 39 39 38 36 34 34 35 34 33 34 34 33 34 34 33 33 31
32 35 34 35 36 35 34 32 30 30 30 31 32 33 34 35 36 38 40 42 43 44 44 44 44 42 40 39 38 36 36 38 40 41 41 40 38 36 38 37 37 36 36 36 34 35 35 34 34
30 29 36 35 36 36 35 33 32 32 32 32 33 35 36 38 39 41 42 43 43 43 42 42 42 42 41 40 39 37 36 37 38 40 42 42 42 40 40 41 39 38 37 37 37 36 36 36 36
29 23 34 35 35 36 36 35 34 34 34 34 35 35 36 38 40 41 41 42 43 44 44 43 44 43 43 42 40 40 39 39 40 41 42 46 47 45 43 43 41 39 38 38 38 39 38 37 36
27 22 27 38 36 36 37 37 36 36 37 37 37 37 39 40 42 43 44 44 45 45 45 45 44 44 44 43 43 42 42 43 42 41 42 43 46 47 46 45 44 44 44 42 41 41 41 40 38
26 23 21 32 37 36 37 38 39 38 39 39 40 41 41 43 44 45 45 45 45 45 45 44 45 45 45 45 45 45 45 45 44 44 44 44 43 46 48 47 46 46 46 45 45 45 43 42 42
27 25 22 25 33 37 37 38 40 41 42 43 44 44 45 45 46 45 45 45 45 45 45 46 46 46 46 46 47 47 47 47 47 47 46 45 44 42 46 50 49 49 49 48 47 46 46 45 44
29 28 26 25 27 34 38 39 40 42 43 44 45 45 45 45 45 44 45 45 46 47 47 48 48 49 49 49 50 49 49 49 49 49 49 47 47 44 42 45 49 51 50 48 46 45 45 45 43
32 31 30 29 29 29 33 38 41 42 43 44 45 45 45 44 45 46 47 48 49 50 50 50 50 51 52 53 52 53 52 51 51 50 49 48 47 45 42 41 42 44 44 43 43 42 40 40 40
34 34 34 33 32 33 35 34 39 40 41 42 43 44 46 47 48 49 50 51 53 53 54 54 54 53 53 53 54 53 52 51 49 49 48 46 46 44 42 42 41 41 40 40 40 41 41 41 41
38 38 38 37 36 35 40 40 43 46 47 49 49 51 52 53 54 55 55 56 57 57 58 57 57 56 56 55 54 53 49 47 46 45 45 44 45 46 46 46 45 45 45 46 45 45 47 47 49
42 42 41 41 41 39 44 44 45 51 55 56 57 58 59 59 59 59 59 58 59 61 61 60 60 60 59 57 54 51 48 46 45 46 46 46 46 48 50 52 52 53 52 53 55 56 56 57 57
45 45 43 39 41 41 46 44 50 55 58 61 62 63 63 63 62 61 61 62 63 63 63 63 62 61 59 57 55 51 49 48 47 47 48 50 51 52 53 56 59 60 61 63 64 64 64 63 62
47 48 48 45 46 46 45 43 49 57 61 63 65 67 67 67 66 64 62 59 55 54 56 58 56 56 57 56 54 52 51 51 51 51 51 52 54 56 58 61 63 64 66 67 68 68 67 68 68
53 54 57 58 56 52 49 50 51 56 61 64 66 66 68 69 66 61 56 55 59 61 63 63 64 63 61 61 60 59 58 57 58 58 59 60 61 62 64 66 67 69 72 74 75 76 78 78 77
60 60 62 63 59 56 53 55 59 62 64 66 68 69 69 67 66 66 65 64 66 66 67 68 68 69 69 68 68 68 68 68 69 69 70 70 71 71 72 73 75 77 78 79 80 81 83 84 84
65 65 67 68 67 68 65 64 69 71 70 71 71 73 74 75 77 75 74 75 74 74 72 72 71 71 73 73 73 74 74 74 74 76 76 77 77 78 78 79 80 81 82 84 86 88 89 90 91
71 72 74 76 73 72 69 59 64 73 75 76 76 76 76 78 82 83 84 83 82 82 81 81 79 79 79 79 79 79 80 81 82 83 84 84 85 86 85 85 86 87 88 89 90 92 93 94 95
Wind_Direction
321 325 324 316 309 309 307 300 286 160 153 159 166 174 181 181 204 224 233 244 245 257 257 258 272 274 283 287 286 285 281 284 284 278 284 287 286 293 279 268 252 230 228 225 229 243 255 250 240
318 323 323 312 304 301 290 276 239 212 183 189 189 206 214 231 232 244 254 257 255 257 255 263 271 277 280 284 287 290 288 287 288 283 285 288 287 292 288 278 259 214 225 222 228 236 245 253 256
315 319 320 310 301 300 289 263 234 235 221 215 224 236 242 247 236 237 237 240 248 254 258 264 269 275 281 283 284 289 288 287 291 288 287 289 291 292 293 298 300 284 234 224 218 224 237 241 253
309 315 314 309 297 292 288 261 244 239 246 241 239 239 240 229 233 241 243 248 255 261 268 272 273 274 278 281 283 282 281 284 284 286 285 287 289 293 292 295 301 299 323 226 214 219 221 225 249
302 306 310 306 294 291 283 272 251 250 249 242 243 241 240 234 235 234 235 236 246 257 263 267 270 272 272 272 271 273 276 277 278 280 282 284 285 287 287 293 295 298 310 310 220 220 218 225 235
295 296 303 300 293 288 283 272 260 256 247 251 245 242 243 237 227 229 236 248 257 265 268 269 271 274 278 278 277 277 279 278 276 278 280 280 282 284 283 287 290 294 297 307 288 224 214 222 220
291 287 290 293 290 290 285 276 264 257 253 245 248 237 234 235 237 241 245 247 251 258 264 272 278 282 283 281 281 284 285 283 283 280 279 279 279 280 281 281 283 287 288 290 293 243 215 223 218
291 283 280 283 286 287 282 273 263 258 259 253 251 240 236 241 241 238 238 243 251 259 267 274 278 280 281 280 279 280 282 284 282 281 278 276 277 276 277 278 278 281 283 288 293 284 268 217 221
283 282 274 273 279 281 279 269 266 258 256 256 248 245 244 243 243 240 243 249 256 262 272 277 280 284 286 287 286 282 279 281 285 283 280 276 275 275 275 272 272 274 277 279 282 283 285 273 234
277 275 273 267 269 273 274 269 261 259 253 254 256 249 247 245 244 246 250 254 257 264 271 276 280 280 282 284 285 282 279 277 277 280 280 280 276 273 274 275 271 269 271 272 275 278 280 280 276
278 270 266 263 261 263 266 268 266 259 257 254 253 253 248 249 250 252 256 258 261 266 271 276 279 279 281 281 281 280 278 276 276 276 278 279 278 275 272 273 275 271 267 268 270 273 274 272 273
280 272 262 257 256 256 259 262 265 263 259 256 252 253 256 259 260 260 261 263 265 269 273 278 280 281 281 280 278 276 273 272 272 272 275 277 277 272 270 271 272 273 271 268 267 269 272 271 270
283 271 261 254 252 252 254 257 261 262 261 258 255 252 253 256 259 261 264 266 270 272 276 279 281 281 282 281 279 275 271 270 269 269 270 272 273 271 266 267 269 270 271 270 268 267 267 268 264
284 270 258 250 248 249 251 254 258 261 262 260 259 258 258 259 261 263 266 269 273 276 277 280 280 281 280 280 279 276 273 271 270 268 267 267 269 270 265 263 266 267 267 268 268 267 267 266 264
298 269 246 246 244 245 249 251 255 259 261 261 261 262 262 263 265 268 271 274 277 277 278 279 280 281 281 280 278 276 273 272 270 269 268 266 265 266 264 261 263 265 266 267 267 266 265 265 264
308 284 242 241 243 244 247 250 254 258 261 262 264 265 266 268 270 272 274 276 277 278 279 279 280 280 279 278 276 276 275 275 274 272 269 267 265 263 263 260 261 262 265 265 265 265 264 262 263
306 299 254 239 242 245 248 251 253 257 261 263 264 266 268 270 272 275 276 277 278 279 279 279 278 276 276 275 275 274 273 274 274 274 273 270 265 261 259 258 258 260 262 264 265 262 260 258 257
300 300 274 248 242 246 249 254 256 256 259 262 264 267 269 272 274 275 276 276 277 277 277 276 276 275 275 274 274 273 273 274 274 274 273 271 268 261 258 256 256 259 261 263 265 262 257 255 255
294 291 286 263 251 251 253 255 259 261 262 264 265 267 269 271 273 274 274 275 275 276 276 276 276 275 274 274 274 274 274 275 274 273 271 270 267 264 260 256 256 257 260 261 262 259 256 255 254
290 286 280 274 263 256 257 259 261 262 264 266 267 269 270 271 271 270 270 272 273 275 276 278 280 280 279 279 278 276 274 274 274 272 271 269 267 263 261 258 256 256 256 256 255 252 253 254 255
287 284 281 275 269 265 262 263 262 262 264 265 266 267 267 267 267 269 270 272 274 276 277 278 278 279 280 280 280 279 278 276 274 272 269 266 265 263 261 260 259 257 254 251 251 251 249 250 252
281 281 279 277 273 269 268 264 268 266 265 264 263 264 265 266 268 270 272 274 275 277 278 280 280 281 281 281 281 280 278 275 272 270 267 264 262 261 260 260 256 253 250 248 247 249 250 251 252
278 280 278 277 275 275 271 269 268 271 269 268 267 267 267 267 268 269 271 273 276 278 279 280 280 281 281 281 282 281 277 273 268 265 262 260 257 254 253 251 251 251 250 249 249 250 252 254 255
278 278 278 277 276 277 274 275 273 270 270 272 272 272 272 272 272 273 274 276 278 279 280 280 281 281 281 282 281 280 275 270 266 264 262 260 260 257 254 252 251 251 250 251 253 255 256 257 257
279 279 277 278 281 280 279 280 276 274 274 275 276 276 276 276 276 276 278 279 279 280 281 280 279 279 280 280 280 277 273 268 264 263 262 260 259 258 258 256 255 255 255 256 256 256 255 256 257
278 275 275 275 276 277 278 280 277 275 275 275 275 275 274 274 274 274 276 277 278 277 278 280 281 280 279 278 277 275 272 267 265 263 263 263 262 261 260 258 256 257 257 257 257 257 257 258 259
274 274 274 276 277 276 274 272 274 275 274 275 275 276 275 274 276 275 273 274 276 278 279 280 280 278 277 277 276 275 274 272 269 267 266 265 264 264 263 262 260 258 258 257 258 258 259 260 261
278 276 276 277 277 276 274 273 275 272 271 272 273 273 274 274 273 274 275 275 275 277 278 278 277 277 275 275 275 275 274 272 271 271 270 269 269 268 267 266 264 263 262 261 261 261 261 262 262
277 278 278 277 278 276 274 276 275 273 270 268 269 271 273 273 274 274 274 275 276 277 278 277 276 275 275 275 275 275 274 274 273 272 271 271 270 268 266 266 266 265 265 264 263 263 262 262 263
279 280 281 281 280 279 278 275 277 272 270 268 267 268 268 268 269 271 272 273 274 275 276 277 275 275 273 274 274 274 273 273 272 273 273 273 274 273 272 270 269 268 267 266 265 265 264 264 264